Weather History for Columbia Airport, CA

Change the Weather History Date:

Thursday, August 8, 2013

  Actual Average (KMOD) Record (KMOD)
Temperature  
Mean Temperature 67 °F -  
Max Temperature 84 °F 95 °F 106 °F (1978)
Min Temperature 50 °F 63 °F 49 °F (1944)
Degree Days  
Heating Degree Days 0 0  
Month to date heating degree days 0  
Since 1 June heating degree days 3  
Since 1 July heating degree days 0  
Cooling Degree Days 2 14  
Month to date cooling degree days 112  
Year to date cooling degree days 1047  
Since 1 June cooling degree days 848  
Growing Degree Days 17 (Base 50)    
Moisture  
Dew Point 43 °F    
Average Humidity 47    
Maximum Humidity 82    
Minimum Humidity 20    
Precipitation  
Precipitation 0.00 in 0.00 in 0.01 in (1989)
Month to date precipitation 0.00  
Year to date precipitation 8.75  
Since 1 July precipitation T  
Snow  
Snow 0.00 in - - ()
Month to date snowfall  
Since 1 June snowfall  
Since 1 July snowfall  
Snow Depth -    
Sea Level Pressure  
Sea Level Pressure 29.99 in    
Wind  
Wind Speed 3 mph (WSW)    
Max Wind Speed 9 mph    
Max Gust Speed 17 mph    
Visibility 10 miles    
Events      
T = Trace of Precipitation, MM = Missing Value Source: NWS Daily Summary

Daily Weather History Graph

Daily Weather History Graph

Search for Another Location

Airport:

Trip Planner

Search our weather history database for the weather conditions in past years. The results will help you decide how hot, cold, wet, or windy it might be!

Date:

Astronomy

Aug. 08, 2013 Rise Set
Actual Time 6:10 AM PDT 8:02 PM PDT
Civil Twilight 5:42 AM PDT 8:31 PM PDT
Nautical Twilight 5:07 AM PDT 9:06 PM PDT
Astronomical Twilight 4:30 AM PDT 9:43 PM PDT
Moon 8:00 AM PDT (8/8) 8:47 PM PDT (8/8)
Length of Visible Light 14h 49m
Length of Day
13h 52m
Waxing Crescent, 3% of the Moon is Illuminated
Aug 8
Waxing Crescent
Aug 14
First Quarter
Aug 20
Full
Aug 28
Last Quarter
Sep 5
New

Hourly Weather History & Observations

Time (PDT) Temp. Dew Point Humidity Pressure Visibility Wind Dir Wind Speed Gust Speed Precip Events Conditions
12:15 AM 55.4 °F 46.4 °F 72% 30.04 in 10.0 mi NE 3.5 mph - N/A   Clear
12:35 AM 55.4 °F 46.4 °F 72% 30.04 in 10.0 mi Calm Calm - N/A   Clear
12:55 AM 53.6 °F 46.4 °F 77% 30.03 in 10.0 mi Calm Calm - N/A   Clear
1:15 AM 55.4 °F 46.4 °F 72% 30.03 in 10.0 mi Calm Calm - N/A   Clear
1:35 AM 53.6 °F 44.6 °F 72% 30.03 in 10.0 mi Calm Calm - N/A   Clear
1:55 AM 53.6 °F 44.6 °F 72% 30.02 in 10.0 mi Calm Calm - N/A   Partly Cloudy
2:15 AM 53.6 °F 44.6 °F 72% 30.02 in 10.0 mi Calm Calm - N/A   Clear
2:35 AM 53.6 °F 44.6 °F 72% 30.01 in 10.0 mi Calm Calm - N/A   Clear
2:55 AM 51.8 °F 44.6 °F 76% 30.01 in 10.0 mi NE 4.6 mph - N/A   Scattered Clouds
3:15 AM 53.6 °F 44.6 °F 72% 30.01 in 10.0 mi NE 3.5 mph - N/A   Mostly Cloudy
3:35 AM 53.6 °F 44.6 °F 72% 30.00 in 10.0 mi Calm Calm - N/A   Partly Cloudy
3:55 AM 53.6 °F 44.6 °F 72% 30.01 in 10.0 mi NE 3.5 mph - N/A   Clear
4:15 AM 50.0 °F 44.6 °F 82% 30.00 in 10.0 mi Calm Calm - N/A   Clear
4:35 AM 50.0 °F 44.6 °F 82% 30.00 in 10.0 mi Calm Calm - N/A   Clear
4:55 AM 50.0 °F 44.6 °F 82% 30.00 in 10.0 mi Calm Calm - N/A   Clear
5:15 AM 50.0 °F 44.6 °F 82% 29.99 in 10.0 mi North 3.5 mph - N/A   Clear
5:35 AM 50.0 °F 44.6 °F 82% 30.00 in 10.0 mi Calm Calm - N/A   Clear
5:55 AM 50.0 °F 44.6 °F 82% 30.00 in 10.0 mi Calm Calm - N/A   Clear
6:15 AM 50.0 °F 44.6 °F 82% 30.00 in 10.0 mi Calm Calm - N/A   Clear
6:35 AM 50.0 °F 44.6 °F 82% 30.00 in 10.0 mi Calm Calm - N/A   Clear
6:55 AM 51.8 °F 44.6 °F 76% 30.00 in 10.0 mi Calm Calm - N/A   Clear
7:15 AM 55.4 °F 44.6 °F 67% 30.00 in 10.0 mi Calm Calm - N/A   Clear
7:35 AM 59.0 °F 46.4 °F 63% 30.01 in 10.0 mi Calm Calm - N/A   Clear
7:55 AM 64.4 °F 46.4 °F 52% 30.01 in 10.0 mi Calm Calm - N/A   Clear
8:15 AM 66.2 °F 46.4 °F 49% 30.01 in 10.0 mi Calm Calm - N/A   Clear
8:35 AM 68.0 °F 46.4 °F 46% 30.01 in 10.0 mi Calm Calm - N/A   Clear
8:55 AM 69.8 °F 44.6 °F 40% 30.00 in 10.0 mi Calm Calm - N/A   Clear
9:15 AM 71.6 °F 44.6 °F 38% 30.01 in 10.0 mi Calm Calm - N/A   Clear
9:35 AM 73.4 °F 44.6 °F 36% 30.00 in 10.0 mi West 3.5 mph - N/A   Clear
9:55 AM 73.4 °F 44.6 °F 36% 30.01 in 10.0 mi West 5.8 mph - N/A   Clear
10:15 AM 75.2 °F 46.4 °F 36% 30.01 in 10.0 mi SSW 3.5 mph - N/A   Clear
10:35 AM 75.2 °F 44.6 °F 34% 30.01 in 10.0 mi SSW 4.6 mph - N/A   Clear
10:55 AM 77.0 °F 42.8 °F 29% 30.00 in 10.0 mi WSW 6.9 mph - N/A   Clear
11:15 AM 77.0 °F 44.6 °F 32% 30.00 in 10.0 mi West 6.9 mph - N/A   Clear
11:35 AM 77.0 °F 46.4 °F 34% 30.01 in 10.0 mi West 6.9 mph - N/A   Clear
11:55 AM 78.8 °F 46.4 °F 32% 30.01 in 10.0 mi WSW 9.2 mph - N/A   Clear
12:15 PM 80.6 °F 46.4 °F 30% 30.00 in 10.0 mi SSW 4.6 mph - N/A   Clear
12:35 PM 78.8 °F 46.4 °F 32% 30.00 in 10.0 mi South 6.9 mph - N/A   Clear
12:55 PM 78.8 °F 46.4 °F 32% 30.00 in 10.0 mi South 8.1 mph - N/A   Clear
1:15 PM 78.8 °F 44.6 °F 30% 30.00 in 10.0 mi SSW 8.1 mph - N/A   Clear
1:35 PM 78.8 °F 41.0 °F 26% 30.00 in 10.0 mi South 5.8 mph - N/A   Clear
1:55 PM 80.6 °F 41.0 °F 24% 30.00 in 10.0 mi South 8.1 mph - N/A   Clear
2:15 PM 80.6 °F 41.0 °F 24% 30.00 in 10.0 mi WSW 4.6 mph - N/A   Clear
2:35 PM 84.2 °F 41.0 °F 22% 30.00 in 10.0 mi WSW 8.1 mph - N/A   Clear
2:55 PM 82.4 °F 39.2 °F 21% 29.99 in 10.0 mi SW 6.9 mph - N/A   Clear
3:15 PM 82.4 °F 39.2 °F 21% 29.99 in 10.0 mi West 6.9 mph - N/A   Clear
3:35 PM 82.4 °F 37.4 °F 20% 29.98 in 10.0 mi WSW 8.1 mph - N/A   Clear
3:55 PM 82.4 °F 37.4 °F 20% 29.98 in 10.0 mi West 4.6 mph - N/A   Clear
4:15 PM 80.6 °F 37.4 °F 21% 29.98 in 10.0 mi WSW 8.1 mph - N/A   Clear
4:35 PM 82.4 °F 37.4 °F 20% 29.97 in 10.0 mi WNW 4.6 mph 17.3 mph N/A   Clear
4:55 PM 80.6 °F 37.4 °F 21% 29.97 in 10.0 mi WSW 8.1 mph - N/A   Clear
5:15 PM 80.6 °F 35.6 °F 20% 29.96 in 10.0 mi WSW 6.9 mph - N/A   Clear
5:35 PM 78.8 °F 35.6 °F 21% 29.96 in 10.0 mi Calm Calm - N/A   Clear
5:55 PM 80.6 °F 35.6 °F 20% 29.95 in 10.0 mi WSW 6.9 mph - N/A   Clear
6:15 PM 78.8 °F 37.4 °F 23% 29.95 in 10.0 mi WSW 5.8 mph - N/A   Clear
6:35 PM 77.0 °F 37.4 °F 24% 29.95 in 10.0 mi SW 4.6 mph - N/A   Clear
6:55 PM 77.0 °F 37.4 °F 24% 29.94 in 10.0 mi WSW 5.8 mph - N/A   Clear
7:15 PM 75.2 °F 39.2 °F 27% 29.95 in 10.0 mi WSW 3.5 mph - N/A   Clear
7:35 PM 75.2 °F 39.2 °F 27% 29.95 in 10.0 mi WSW 3.5 mph - N/A   Clear
7:55 PM 71.6 °F 41.0 °F 33% 29.95 in 10.0 mi WNW 3.5 mph - N/A   Clear
8:15 PM 71.6 °F 42.8 °F 35% 29.95 in 10.0 mi WNW 5.8 mph - N/A   Clear
8:35 PM 69.8 °F 44.6 °F 40% 29.96 in 10.0 mi NW 4.6 mph - N/A   Clear
8:55 PM 68.0 °F 46.4 °F 46% 29.97 in 10.0 mi Calm Calm - N/A   Clear
9:15 PM 66.2 °F 42.8 °F 43% 29.97 in 10.0 mi NE 3.5 mph - N/A   Clear
9:35 PM 64.4 °F 42.8 °F 45% 29.97 in 10.0 mi NE 3.5 mph - N/A   Clear
9:55 PM 62.6 °F 44.6 °F 52% 29.97 in 10.0 mi Calm Calm - N/A   Clear
10:15 PM 64.4 °F 44.6 °F 49% 29.97 in 10.0 mi Calm Calm - N/A   Clear
10:35 PM 62.6 °F 44.6 °F 52% 29.97 in 10.0 mi NNE 3.5 mph - N/A   Clear
10:55 PM 59.0 °F 44.6 °F 59% 29.97 in 10.0 mi Calm Calm - N/A   Clear
11:15 PM 60.8 °F 44.6 °F 55% 29.96 in 10.0 mi Calm Calm - N/A   Clear
11:35 PM 59.0 °F 44.6 °F 59% 29.96 in 10.0 mi Calm Calm - N/A   Clear
11:55 PM 57.2 °F 44.6 °F 63% 29.96 in 10.0 mi Calm Calm - N/A   Clear